EW1522 Weather Reports


Display with metric or nautical units.
time (UTC)temp
F
wind
direction
speed
MPH
gust
MPH
rain 1hr
in
rain 24hr
in
rain mn
in
humidity
%
barometer
mb
20200225031544 22 303 1.0 4.0 0.00 0.00 0.00 36 1020.6
20200225030118 22 306 2.0 12.0 0.00 0.00 0.00 37 1020.5
20200225024518 22 16 0.0 7.0 0.00 0.00 0.00 36 1020.5
20200225023010 23 6 2.0 8.0 0.00 0.00 0.00 35 1020.3
20200225021601 23 293 2.0 7.0 0.00 0.00 0.00 34 1020.2
20200225020038 23 341 0.0 7.0 0.00 0.00 0.00 36 1020.3
20200225014602 22 339 3.0 6.0 0.00 0.00 0.00 37 1020.1
20200225013044 22 323 0.0 6.0 0.00 0.00 0.00 39 1019.8
20200225010115 24 11 7.0 15.0 0.00 0.00 0.00 37 1019.1
20200225004508 25 332 11.0 20.0 0.00 0.00 0.00 36 1018.7
20200225003112 26 15 10.0 20.0 0.00 0.00 0.00 37 1018.3
20200225001511 26 23 11.0 17.0 0.00 0.00 0.00 38 1018.1
20200225000112 27 8 9.0 16.0 0.00 0.00 0.00 38 1017.8
20200224234537 29 354 11.0 21.0 0.00 0.02 0.00 36 1017.6
20200224233104 29 1 10.0 17.0 0.00 0.02 0.00 36 1017.4
20200224231618 29 354 12.0 19.0 0.00 0.02 0.00 36 1017.1
20200224230018 29 346 12.0 20.0 0.00 0.02 0.00 36 1016.8
20200224224557 30 338 13.0 22.0 0.00 0.04 0.00 35 1016.6
20200224223059 30 315 11.0 21.0 0.00 0.04 0.00 37 1016.3
20200224221620 30 20 12.0 21.0 0.00 0.04 0.00 41 1015.9
20200224220033 31 338 13.0 18.0 0.00 0.04 0.00 38 1015.6
20200224214708 31 349 13.0 19.0 0.00 0.04 0.00 38 1015.3
20200224213136 31 349 12.0 18.0 0.00 0.04 0.00 43 1015.1
20200224211701 31 347 14.0 20.0 0.00 0.04 0.00 42 1015.0
20200224210124 32 338 14.0 20.0 0.00 0.04 0.00 40 1014.8
20200224204504 31 331 11.0 20.0 0.00 0.04 0.00 38 1014.7
20200224203114 31 13 14.0 24.0 0.00 0.04 0.00 35 1014.9
20200224201507 31 322 15.0 21.0 0.00 0.04 0.00 36 1014.9
20200224200104 30 352 18.0 27.0 0.00 0.04 0.00 34 1015.1
20200224194513 31 12 17.0 31.0 0.00 0.04 0.00 38 1015.1
20200224193135 31 346 18.0 27.0 0.00 0.04 0.00 36 1015.3
20200224191508 32 338 14.0 21.0 0.00 0.04 0.00 39 1015.2
20200224190043 31 352 13.0 18.0 0.00 0.04 0.00 39 1015.2
20200224184522 31 324 10.0 17.0 0.00 0.04 0.00 42 1015.1
20200224183055 31 335 8.0 12.0 0.00 0.04 0.00 54 1014.7
20200224180048 28 6 4.0 8.0 0.00 0.04 0.00 82 1014.7
20200224174626 28 68 0.0 5.0 0.00 0.04 0.00 88 1014.7
20200224173059 27 23 7.0 9.0 0.00 0.04 0.00 86 1015.1
20200224171530 27 23 2.0 6.0 0.00 0.04 0.00 85 1014.9
20200224170120 28 250 5.0 16.0 0.00 0.04 0.00 78 1015.3
20200224164535 29 12 10.0 20.0 0.00 0.04 0.00 69 1014.6
20200224163006 30 11 15.0 23.0 0.00 0.04 0.00 65 1013.9
20200224161610 33 354 15.0 25.0 0.00 0.04 0.00 56 1013.7
20200224154621 38 194 4.0 15.0 0.00 0.04 0.00 40 1012.4
20200224153003 36 173 6.0 12.0 0.00 0.04 0.00 41 1012.3
20200224151603 35 174 7.0 11.0 0.00 0.04 0.00 43 1012.3
20200224150016 34 169 4.0 7.0 0.00 0.04 0.00 47 1012.4
20200224144619 33 150 5.0 7.0 0.00 0.04 0.00 45 1012.5
20200224143057 32 148 4.0 8.0 0.00 0.04 0.00 45 1012.6
20200224141652 31 153 5.0 9.0 0.00 0.04 0.00 48 1012.9
20200224140146 30 160 2.0 6.0 0.00 0.04 0.00 50 1013.2
20200224134503 30 177 3.0 7.0 0.00 0.04 0.00 50 1013.0
20200224133046 31 207 0.0 3.0 0.00 0.04 0.00 48 1013.0
20200224131507 32 194 1.0 11.0 0.00 0.04 0.00 48 1013.3
20200224130108 29 181 7.0 12.0 0.00 0.04 0.00 52 1013.4
20200224124508 26 167 5.0 14.0 0.00 0.04 0.00 57 1013.5
20200224123117 28 186 7.0 15.0 0.00 0.04 0.00 57 1013.2
20200224121508 26 160 4.0 7.0 0.00 0.04 0.00 66 1013.1
20200224114534 20 162 0.0 4.0 0.00 0.04 0.00 72 1013.0
20200224113129 21 155 0.0 1.0 0.00 0.04 0.00 72 1012.8
20200224111523 21 169 4.0 7.0 0.00 0.04 0.00 73 1012.3
20200224110135 22 86 0.0 5.0 0.00 0.04 0.00 76 1011.8
20200224104513 19 215 1.0 2.0 0.00 0.04 0.00 80 1011.9
20200224103156 21 141 0.0 2.0 0.00 0.04 0.00 77 1011.8
20200224101529 20 131 0.0 1.0 0.00 0.04 0.00 84 1011.9
20200224100200 19 155 0.0 1.0 0.00 0.04 0.00 82 1011.9
20200224094526 21 240 0.0 1.0 0.00 0.04 0.00 79 1011.8
20200224093136 20 143 0.0 4.0 0.00 0.04 0.00 82 1012.0
20200224091642 21 129 0.0 1.0 0.00 0.04 0.00 85 1012.6
20200224084649 19 244 0.0 1.0 0.00 0.04 0.00 84 1013.1
20200224083007 19 172 0.0 3.0 0.00 0.04 0.00 80 1013.3
20200224081556 22 117 0.0 1.0 0.00 0.04 0.00 76 1013.4
20200224080038 24 289 0.0 4.0 0.00 0.04 0.00 73 1013.5
20200224074656 27 152 0.0 7.0 0.00 0.04 0.00 76 1013.5
20200224073024 23 167 3.0 6.0 0.00 0.04 0.00 85 1013.9
20200224071645 20 152 2.0 4.0 0.00 0.04 0.00 87 1013.9
20200224070004 20 191 0.0 2.0 0.00 0.04 0.00 85 1013.9
20200224064656 20 160 0.0 2.0 0.00 0.04 0.04 85 1014.0
20200224063035 21 115 0.0 1.0 0.00 0.04 0.04 83 1014.1
20200224061537 23 120 0.0 1.0 0.00 0.04 0.04 80 1014.1
20200224060157 25 208 0.0 5.0 0.00 0.04 0.04 79 1014.0
20200224054612 26 117 4.0 6.0 0.00 0.04 0.04 81 1014.2
20200224053046 27 226 0.0 4.0 0.00 0.04 0.04 76 1014.5
20200224051515 29 226 0.0 5.0 0.00 0.04 0.04 73 1014.8
20200224050233 29 150 4.0 7.0 0.00 0.04 0.04 73 1015.0
20200224044634 29 150 4.0 7.0 0.00 0.04 0.04 76 1015.1
20200224043022 29 141 3.0 5.0 0.00 0.04 0.04 79 1015.2
20200224041739 28 129 0.0 3.0 0.00 0.04 0.04 80 1015.2
20200224040302 29 228 1.0 4.0 0.00 0.04 0.04 80 1015.2
20200224034555 30 136 2.0 4.0 0.00 0.04 0.04 80 1015.1